Location: *
(28.3744°N, 81.5492°W)
Time: 03:07:29
(UTC+00:00)

BlueWalker 3 - Pass Details

Date: 15 June 2025
Orbit: 461 x 470 km, 53.2° (Epoch: 11 July)

Event Time Altitude Azimuth Distance (km) Brightness Sun altitude
Exits shadow 09:34:44 11° 199° (SSW) 1,546 3.9 -11.0°
Maximum altitude 09:38:02 43° 128° (SE) 658 2.7 -10.4°
Drops below altitude 10° 09:41:29 10° 55° (NE) 1,610 6.2 -9.8°
Sets 09:43:41 0° 49° (NE) 2,486 7.6 -9.4°
